SL-12 R/B(AUX MOTOR), 19856

Orbit data source: Space-Track

SL-12 R/B(AUX MOTOR), 19856 is space debris in HEO originally from a launch on Tue, 10 Jan 1989 UTC launched from the Tyuratam Missile And Space Complex (TTMTR). Debris objects in space refer to the collection of defunct objects orbiting the Earth. Examples of debris include non-operational satellites, rocket bodies, and fragments generated from explosions, collisions, or faulty payload assembly.

Loading next visibility...
Identifier
19856, 1989-001H
Orbit
HEO
Country
Flag of CISCIS
Related business
Manufacturer
NPO Energiya
Mission
Spacecraft
Bus & Motor
SOZ, Unknown motor
Mass
Wet unknown, ~60 kg dry
Launch date (UTC)
1989-01-10 (37 years ago)
Launch vehicle
Unknown
Launch site
Tyuratam Missile And Space Complex (TTMTR)
Object type
Payload
Rocket body
Debris
Shape & HBR
Cyl, 0.6 m
Radar Cross Section
0.660 m², Large (>1 m²)

Expand to show TLE details & history
Last TLE update: 3 days ago

TLE from 3 days ago
0 SL-12 R/B(AUX MOTOR)
1 19856U 89001H   26170.61519526  .00000006  00000-0  39611-3 0  9997
2 19856  65.1669  19.3752 5674467  23.9237 354.5257  4.25463793580632
Epoch: 2026-06-19T14:45Z
TLE epoch observation values (Epoch: 2026-06-19T14:45:52.870Z)
Latitude
0.00011°
Longitude
-109.93697°
Altitude
804.141 km
Speed
9.287 km/s
True Right ascension
01h 17m 29s
True Declination
0° 00' 00"
Sunlit
Object was in daylight at epoch
Visualization orbit readout
Latitude
Unknown
Longitude
Unknown
Altitude
Unknown
Speed
Unknown
Apparent Right ascension
Unknown
Apparent Declination
Unknown
Sunlit
N/A
Visualization observer readout
Local Sidereal Time
00:51:09
Azimuth
Unknown
Elevation
Unknown
Doppler factor
Unknown
Orbital elements
Apogee altitude
18,836.651 km
Perigee altitude
580.147 km
Semi-major axis
16,086.536 km
Eccentricity
0.56745
Inclination
65.1669°
RAAN
19.3752°
Arg. of periapsis
23.9237°
True anomaly
336.40091°
Mean anomaly
354.5257°
Eccentric anomaly
347.47478°
Mean motion
1.06377 °/min
Orbital period
338.42 mins
BSTAR
0.00039611
Loading maneuver chart data...
Computing Atmospheric mass density...

Documentation

Showing up to 5 results
|